Flag for United Kingdom Weather past 2 weeks in Crawley, England, United Kingdom

Now
43 °F

Passing clouds.


Feels Like: 40 °F
Forecast: 37 / 51 °F
Wind: 5 mph from Southwest

Location: London / Gatwick Airport

Current Time: Mar 6, 2015 at 4:10:58 AM

Latest Report: Mar 6, 2015 at 3:20 AM


Visibility: N/A

Pressure: 30.63 "Hg

Humidity: 76%

Dew point: 36 °F

Location of CrawleyLocation

Historic Weather in Crawley — Graph

°F

Crawley temperature yesterday

Maximum temperature yesterday: 52 °F (at 12:50 PM)
Minimum temperature yesterday: 28 °F (at 6:20 AM)
Average temperature yesterday: 42 °F

Past Weeks' High & Low Weather Summary

 TemperatureHumidityPressure
High54 °F (Feb 25, 3:50 PM)100% (Feb 20, 2:20 AM)30.72 "Hg (Feb 20, 2:20 AM)
Low27 °F (Feb 22, 6:20 AM)40% (Mar 2, 4:20 PM)29.27 "Hg (Feb 22, 11:20 PM)
Average43 °F80%29.89 "Hg
* Reported Feb 19 2:20 AM — Mar 6 2:50 AM, Crawley, Weather by CustomWeather, © 2015

Note: Actual official high and low records may vary slightly from our data, if they occured in-between our weather recording intervals... More about our weather records

Advertising

Crawley weather history for previous 24 hours

 ConditionsComfort  
Time TempWeatherWind HumidityBarometerVisibility
2:50 AM
Fri, Mar 6
43 °FPassing clouds.5 mph76%30.63 "HgN/A
2:20 AM43 °FPassing clouds.3 mph76%30.63 "HgN/A
1:50 AM43 °FPassing clouds.6 mph81%30.63 "HgN/A
1:20 AM43 °FPassing clouds.3 mph81%30.63 "HgN/A
12:50 AM43 °FPassing clouds.3 mph81%30.63 "HgN/A
12:20 AM41 °FPassing clouds.5 mph87%30.63 "HgN/A
11:50 PM
Thu, Mar 5
41 °FPassing clouds.5 mph87%30.63 "HgN/A
11:20 PM43 °FPassing clouds.3 mph81%30.66 "HgN/A
10:20 PM41 °FPassing clouds.5 mph87%30.66 "HgN/A
9:50 PM41 °FPassing clouds.5 mph87%30.66 "HgN/A
9:20 PM43 °FPassing clouds.6 mph81%30.66 "HgN/A
8:50 PM43 °FPassing clouds.5 mph76%30.66 "HgN/A
8:20 PM45 °FPassing clouds.5 mph71%30.66 "HgN/A
7:50 PM45 °FPassing clouds.5 mph71%30.66 "HgN/A
7:20 PM45 °FPassing clouds.6 mph71%30.66 "HgN/A
6:50 PM46 °FPassing clouds.7 mph66%30.66 "HgN/A
6:20 PM46 °FPassing clouds.7 mph66%30.66 "HgN/A
5:50 PM48 °FPassing clouds.8 mph62%30.63 "HgN/A
5:20 PM50 °FScattered clouds.8 mph58%30.63 "HgN/A
4:50 PM50 °FPartly sunny.12 mph58%30.66 "HgN/A
4:20 PM50 °FPartly sunny.10 mph62%30.66 "HgN/A
3:50 PM50 °FPartly sunny.9 mph62%30.66 "HgN/A
3:20 PM50 °FScattered clouds.12 mph58%30.66 "HgN/A
2:50 PM52 °FScattered clouds.14 mph58%30.66 "HgN/A
2:20 PM52 °FScattered clouds.10 mph54%30.66 "HgN/A
1:50 PM52 °FScattered clouds.8 mph54%30.66 "HgN/A
1:20 PM50 °FScattered clouds.9 mph58%30.69 "HgN/A
12:50 PM52 °FScattered clouds.9 mph54%30.69 "HgN/A
12:20 PM50 °FPassing clouds.8 mph62%30.69 "HgN/A
11:50 AM48 °FPassing clouds.9 mph62%30.69 "HgN/A
11:20 AM46 °FPassing clouds.8 mph66%30.72 "HgN/A
10:50 AM46 °FSunny.10 mph66%30.72 "Hg10 mi
10:20 AM46 °FSunny.7 mph57%30.72 "Hg10 mi
9:50 AM45 °FSunny.6 mph61%30.72 "Hg10 mi
9:20 AM43 °FSunny.5 mph66%30.72 "Hg10 mi
8:50 AM39 °FSunny.5 mph75%30.72 "Hg10 mi
8:20 AM37 °FSunny.2 mph81%30.72 "Hg10 mi
7:50 AM34 °FSunny.2 mph93%30.72 "Hg10 mi
7:20 AM30 °FSunny.No wind93%30.72 "Hg10 mi
6:50 AM28 °FSunny.2 mph100%30.72 "Hg10 mi
6:20 AM28 °FClear.No wind93%30.72 "Hg10 mi
5:50 AM30 °FClear.No wind93%30.72 "Hg10 mi
5:20 AM30 °FClear.No wind93%30.72 "Hg10 mi
4:20 AM30 °FClear.No wind93%30.69 "Hg10 mi
Weather by CustomWeather, © 2015

See weather overviewHow to use our weather pages